Zurück zum Katalog

BREEZE-M R/B

AktivMEO
NORAD 26373·ROCKET BODY·🇷🇺 Russia

Gestartet Jun 6, 2000 von Baikonur Cosmodrome

Loading…

Nächste Überflüge (nächste 24 Stunden)

TLE

AktuellSource: Space-Track

Epoche: Sep 14, 2026, 05:43 UTC

1 26373U 00029B   26257.23845583 -.00000371  00000-0  00000-0 0  9994
2 26373  13.5983   6.2163 0257734 340.6200  20.9767  1.00384291 96333

Verfolge BREEZE-M R/B in Echtzeit mit AllMySat

Download on the App Store